Regional Weather Roundup
Issued by NWS

Home | Current Version | Previous Version | Text Only | Print | Product List | Glossary Off
Versions: 1 2 3 4 5 6 7 8 9 10 11 12 13 14 15 16 17 18 19 20 21 22 23 24 25 26 27 28 29 30 31 32 33 34 35 36 37 38 39 40 41 42 43 44 45 46 47 48 49 50

523
ASUS45 KTFX 101010
RWRMT
MONTANA REGIONAL WEATHER ROUNDUP
NATIONAL WEATHER SERVICE GREAT FALLS MT
300 AM MST WED FEB 10 2016

NOTE: "FAIR" INDICATES FEW OR NO CLOUDS BELOW 12000 FEET WITH NO
SIGNIFICANT WEATHER AND/OR OBSTRUCTIONS TO VISIBILITY.

MTZ001>007-043-101100-
WEST OF THE DIVIDE

CITY           SKY/WX    TMP DP  RH WIND       PRES   REMARKS
KALISPELL      FOG       20  18  92 CALM      30.23S VSB 1/2
MISSOULA       MOCLDY    20  17  88 NW3       30.29R FOG
BUTTE          CLOUDY    10   6  84 CALM      30.25S
MULLAN PASS    CLEAR     36  27  69 VRB5      30.23S
ANACONDA         N/A     28  21  74 CALM      30.21F
DEER LODGE       N/A     21  21 100 NW5       30.25R
HAMILTON         N/A     28  25  86 CALM        N/A
LIBBY            N/A     21  19  93 CALM      30.25S
PLAINS           N/A     27  23  84 CALM      30.25R VSB 0
$$

MTZ008-052>055-101100-
SOUTHWEST MONTANA

CITY           SKY/WX    TMP DP  RH WIND       PRES   REMARKS
BOZEMAN        CLOUDY    19  13  77 S3        30.21S
DILLON         CLOUDY    31  22  69 S15       30.26R WCI  20
THREE FORKS      N/A     20  20 100 CALM      30.17S
TWIN BRIDGES     N/A     23  14  68 E7        30.22R WCI  15
$$

MTZ009-010-012-014-046-048-049-054-101100-
EAST SLOPES AND CENTRAL MONTANA

CITY           SKY/WX    TMP DP  RH WIND       PRES   REMARKS
CUT BANK       PTCLDY    47  26  44 W25       29.98S
GREAT FALLS    CLEAR     45  23  42 SW21      30.01F
MALMSTROM AFB  CLEAR     46  22  40 SW16      30.02F
HELENA         CLOUDY    28  24  85 CALM      30.19R
CHOTEAU          N/A     57  19  23 W24G35    30.03S
CONRAD           N/A     40  25  55 W1        30.03R
$$

MTZ011-013-016-021-045-047-050-051-101100-
NORTH CENTRAL MONTANA

CITY           SKY/WX    TMP DP  RH WIND       PRES   REMARKS
HAVRE          CLOUDY    36  25  64 SW10      29.97S WCI  28
LEWISTOWN      CLEAR     41  22  46 SW17      30.03S
CHINOOK          N/A     41  25  52 W9        29.94F
$$

MTZ017>020-022>027-061-062-101100-
NORTHEAST MONTANA

CITY           SKY/WX    TMP DP  RH WIND       PRES   REMARKS
GLASGOW        CLEAR     34  27  75 NW10      29.88S WCI  26
JORDAN           N/A     37  28  70 W8        29.90R WCI  31
SIDNEY         CLOUDY    25  21  86 S6        29.84F WCI  18
WOLF POINT     CLEAR     29  26  89 W8        29.86F WCI  21
PLENTYWOOD       N/A     27  23  86 NE3       29.82S
POPLAR           N/A     28  27  93 W8        29.86S WCI  20
SCOBEY           N/A     29  21  71 SE1       29.83S
$$

MTZ028>42-056>058-101100-
SOUTHCENTRAL AND SOUTHEAST MONTANA

CITY           SKY/WX    TMP DP  RH WIND       PRES   REMARKS
BAKER          CLEAR     31  23  72 W9        29.87F WCI  23
BILLINGS       CLOUDY    44  22  41 SW20      30.01F
LIVINGSTON     CLOUDY    46  21  37 SW33G46   30.14R
MILES CITY     CLOUDY    35  25  66 NW9       29.92S WCI  28
EKALAKA          N/A     43  22  43 SW14      29.89F
FORSYTH          N/A     39  23  52 W8        29.93F
LAUREL           N/A     44  21  40 SW22      30.00F
ROUNDUP          N/A     47  16  29 SW7       29.91S
$$

REGIONAL REPORTS...DAKOTAS

CITY           SKY/WX    TMP DP  RH WIND       PRES   REMARKS
WILLISTON      CLOUDY    24  21  88 SW6       29.82F WCI  17
MINOT          CLOUDY    20  13  74 E15       29.87F WCI   6
DICKINSON      CLOUDY    28  23  81 W7        29.81F WCI  21
BEACH            N/A     32  28  86 SW10      29.87F WCI  24
CROSBY           N/A     25  25 100 SW5       29.81F
TIOGA            N/A     25  25 100 SW6       29.84F WCI  18
WATFORD CITY     N/A     27  25  93 SW8       29.82F WCI  18
BISMARCK       CLOUDY    28  21  75 E10       29.90F WCI  19
GRAND FORKS    CLOUDY     5  -4  66 E8        30.14F WCI  -8
FARGO          CLOUDY     6  -1  73 CALM      30.12F
BUFFALO SD       N/A     35  25  66 W12       29.81F WCI  27
RAPID CITY     CLOUDY    29  23  78 CALM      29.90F
$$

REGIONAL REPORTS...WYOMING/IDAHO/WASHINGTON

CITY           SKY/WX    TMP DP  RH WIND       PRES   REMARKS
GILLETTE       CLOUDY    44  21  40 SW17      30.00F
SHERIDAN       CLOUDY    35  19  52 N5        30.00F
BUFFALO WY     CLOUDY    52  13  21 W12       30.04F
CODY           CLOUDY    54  10  17 W17G33    30.11F
YELLOWSTONE LA   N/A      6   2  83 CALM      30.41S
IDAHO FALLS    CLOUDY    10   7  87 N8        30.43R WCI  -2
SALMON         CLOUDY     7   1  78 CALM      30.43S
BOISE          FOG       29  29 100 CALM      30.42F VSB 1/4
SPOKANE        PTCLDY    34  33  96 CALM      30.24S
$$

REGIONAL REPORTS...ALBERTA

CITY           SKY/WX    TMP DP  RH WIND       PRES   REMARKS
EDMONTON       PTCLDY    30  25  80 W2        30.05R
CALGARY        PTCLDY    34  19  55 N8        30.01R WCI  27
LETHBRIDGE     CLEAR     46  27  46 W17       29.99S
MEDICINE HAT   CLEAR     32  27  80 W6        29.96R WCI  26
$$

REGIONAL REPORTS...SASKATCHEWAN

CITY           SKY/WX    TMP DP  RH WIND       PRES   REMARKS
SWIFT CURRENT  CLEAR     34  28  80 W13       29.90R WCI  25
REGINA         MOCLDY    23  21  93 E7        29.83R WCI  15
SASKATOON      CLOUDY    23  23 100 N5        29.92R
$$




USA.gov is the U.S. government's official web portal to all federal, state and local government web resources and services.